Weather in Znob-Novhorodske

Ukraine / Sumi District     52˚15′51″N   33˚36′05″E
temp.,
°C
wind,
m/s
gust,
m/s
humid.,
%
clouds,
%
prec.,
mm/h
press.,
hPa
HPBL,
m
29 november, sun
sun2923:00+2˚ese3698100 1.4 1018235
02:00+2˚sse2498100 1.8 1018171
05:00+2˚s2399100 1.1 1017136
08:00+2˚s1298100 2.1 1019127
11:00+2˚sw1298100 2.0 1020195
14:00+2˚wsw2397100 4.1 1021211
17:00+2˚sw1297100 0.1 1022174
20:00+2˚se1294100 0.1 1023112
30 november, mon
mon3023:00+1˚ese2397100 0.0 1023183
02:00+1˚nne0098100 0.2 1023103
05:00n2299100 2.1 102280
08:00+1˚nnw1198100 4.3 102474
11:00+1˚nw3398100 0.9 1024124
14:00nnw3498100 3.2 1024179
17:00n1299100 1.2 102592
20:00nnw1299100 2.1 1026120
1 december, tue
tue123:00n2399100 0.8 1026196
02:00nnw3598100 2.5 1027261
05:00−1˚n3698100 0.9 1027316
08:00−1˚n4698100 2.0 1029313
11:00nne4797100 0.4 1029373
14:00nne469898 0.9 1029314
17:00ne359998 0.1 1029197
20:00e369699 0.1 1031253
2 december, wed
wed223:00e3698100 0.1 1031302
02:00−1˚e3691100 0.1 1031237
05:00−3˚e369297 0.0 1030174
08:00−3˚e389199 0.0 1030267
11:00−1˚ese4884100 0.0 1031542
14:00−1˚ese4790100 0.0 1030562
17:00−2˚ese3895100 0.2 1030402
20:00−3˚ese3891100 0.3 1030287
3 december, thu
thu323:00−3˚ese4986100 0.0 1030340
02:00−2˚ese598599 0.0 1030417
05:00−2˚se5992100 0.1 1029502
08:00−3˚se4995100 0.7 1030467
11:00−2˚se579199 0.3 1029512
14:00−2˚se479399 0.5 1029485
17:00−3˚se489694 0.2 1029380
20:00−3˚se499696 0.6 1028387